Location: Unspecified
(48.7670°N, 0.0000°E)
Time: 21:28:29
(UTC+00:00)

Courier 1B Rocket - All Passes

Search period start: 24 June 2019 00:00
Search period end: 04 July 2019 00:00
Orbit: 920 x 1202 km, 28.2° (Epoch: 23 June)

Date Brightness Start Highest point End Pass type
(mag) Time Alt. Az. Time Alt. Az. Time Alt. Az.
24 Jun - 05:34:36 10° SSW 05:36:44 12° S 05:38:50 10° SSE daylight
25 Jun - 04:33:40 10° SSW 04:36:07 12° S 04:38:32 10° SSE daylight
26 Jun - 03:33:08 10° SSW 03:35:29 12° S 03:37:48 10° SSE daylight
26 Jun - 05:25:33 10° SSW 05:27:31 11° S 05:29:28 10° S daylight
27 Jun - 02:33:11 10° S 02:34:49 11° SSE 02:36:27 10° SSE visible
27 Jun - 04:24:07 10° SSW 04:26:54 13° S 04:29:38 10° SSE daylight
28 Jun - 03:23:07 10° SSW 03:26:14 13° S 03:29:17 10° SSE daylight
28 Jun - 05:17:22 10° SSW 05:18:17 10° SSW 05:19:11 10° S daylight
29 Jun - 02:22:30 10° SSW 02:25:33 13° S 02:28:32 10° SSE visible
29 Jun - 04:15:00 10° SSW 04:17:40 12° S 04:20:17 10° SSE daylight
30 Jun - 01:22:20 10° S 01:24:51 12° SSE 01:27:19 10° SSE visible
30 Jun - 03:13:37 10° SSW 03:17:00 14° S 03:20:17 10° SSE visible
01 Jul - 00:23:38 10° SSE 00:24:08 10° SSE 00:24:38 10° SSE visible
01 Jul - 02:12:38 10° SSW 02:16:17 14° S 02:19:51 10° SSE visible
01 Jul - 04:06:25 10° SSW 04:08:23 11° SSW 04:10:19 10° S daylight
02 Jul - 01:11:59 10° SSW 01:15:33 14° S 01:19:02 10° SE visible
02 Jul - 03:04:28 10° SW 03:07:43 13° S 03:10:54 10° SSE visible
03 Jul - 00:11:47 10° SSW 00:14:48 13° SSE 00:17:47 10° SE visible
03 Jul - 02:03:11 10° SW 02:07:00 15° S 02:10:44 10° SSE visible
03 Jul - 23:12:32 10° S 23:14:04 11° SSE 23:15:36 10° SSE night (unlit)
